[[{"header":{"parameterUnit":"m.s-1","parameterCategory":1,"la1":30.2991,"la2":30.254,"lo1":-89.0895,"lo2":-89.0444,"dy":0.0017,"dx":0.0017,"nx":28,"ny":28,"refTime":"2024-08-08T09:00:00:Z","depth":0,"parameterNumber":2,"parameterNumberName":"U-component_of_WINDS"},"data":[0,0,0,0,0,0,0,0,0,0,0,0,0,0,0,0,0,0,0,0,0,0,0,0,0,0,0,0,0,0,0,0,0,0,0,0,0,0,0,0,0,0,0,0,0,0,0,0,0,0,0,0,0,0,0,0,0,0,0.139,0.1391,0,0.1453,0.1454,0.1454,0.1467,0.1467,0.1466,0.1466,0.1534,0.1536,0.1538,0,0,0,0,0,0,0,0,0,0,0,0,0,0.1289,0.1291,0.139,0.1391,0.1392,0.1453,0.1454,0.1454,0.1467,0.1467,0.1466,0.1465,0.1533,0.1536,0.1539,0,0,0,0,0,0,0,0,0,0,0,0,0,0.1341,0.1291,0.139,0.1405,0.1407,0.1453,0.1454,0.1455,0.1467,0.1467,0.1466,0.1465,0.1532,0.1536,0.1539,0.1575,0,0,0.1549,0.1551,0,0,0,0,0,0,0,0,0.1338,0.1344,0.1402,0.1404,0.1407,0.1451,0.1443,0.1495,0.1468,0.1445,0.1466,0.1465,0.1507,0.1513,0.1526,0.1578,0.1581,0.155,0.1552,0.1553,0.1554,0,0,0,0,0,0,0,0.1334,0.1342,0.1415,0.1403,0.1406,0.1412,0.1418,0.1453,0.1479,0.1447,0.1448,0.1455,0.1508,0.1523,0.1528,0.1582,0.155,0.1553,0.1555,0.1556,0.1674,0.1675,0,0,0,0,0,0,0.1327,0.1339,0.1413,0.1417,0.1369,0.1414,0.1421,0.1438,0.1479,0.1485,0.1455,0.1455,0.1517,0.1524,0.153,0.158,0.1553,0.1556,0.1558,0.1672,0.1674,0.1675,0,0,0,0,0,0,0.1325,0.1333,0.141,0.1378,0.1388,0.1416,0.1435,0.1439,0.1454,0.1486,0.1491,0.1465,0.1517,0.1526,0.1565,0.1582,0.1558,0.1561,0.1671,0.1673,0.1674,0.1675,0,0,0,0,0,0,0.1322,0.1332,0.1344,0.1378,0.139,0.1441,0.1436,0.1441,0.1459,0.146,0.1496,0.1501,0.1517,0.156,0.1568,0.1586,0.1564,0.167,0.1672,0.1674,0.1674,0.1676,0.1679,0,0,0,0,0,0.1318,0.1341,0.1344,0.1353,0.1405,0.1442,0.1449,0.1466,0.146,0.1474,0.1496,0.15,0.1578,0.1564,0.1573,0.1592,0.1669,0.1671,0.1674,0.1672,0.1676,0.1679,0,0,0,0,0,0,0.1308,0.1345,0.135,0.1384,0.141,0.1444,0.1461,0.1468,0.1497,0.1496,0.1517,0.1525,0.1565,0.1582,0.1565,0.1633,0.1624,0.1628,0.162,0.1623,0.1626,0.1621,0.1567,0,0,0,0,0,0.1309,0.1335,0.1367,0.1394,0.1407,0.1432,0.1449,0.146,0.1488,0.15,0.1523,0.1552,0.1584,0.1604,0.1635,0.1676,0.1688,0.1695,0.1698,0.17,0.1704,0.1734,0.1739,0.1683,0.1683,0.1683,0,0,0.1313,0.1337,0.1351,0.1393,0.1414,0.1444,0.1441,0.147,0.1493,0.1504,0.1544,0.1563,0.1597,0.1639,0.1659,0.1655,0.1722,0.1703,0.1704,0.1707,0.1737,0.1742,0.1747,0.1685,0.1684,0.1684,0,0,0.1335,0.1354,0.1381,0.1404,0.1436,0.1454,0.1461,0.1495,0.1509,0.1548,0.1559,0.1588,0.1641,0.1667,0.1686,0.1725,0.1733,0.1735,0.1749,0.1777,0.1782,0.1786,0.1805,0.1811,0.1738,0.1738,0.1738,0,0.1336,0.1377,0.1395,0.1425,0.1445,0.1458,0.1488,0.1509,0.1551,0.1566,0.1561,0.1632,0.1655,0.1707,0.1717,0.1731,0.1743,0.1731,0.1779,0.1784,0.1788,0.1806,0.1813,0.1739,0.1739,0.1739,0.1739,0,0.1379,0.1409,0.1427,0.1468,0.149,0.152,0.1546,0.1567,0.1578,0.1597,0.1642,0.1671,0.171,0.1723,0.1733,0.1778,0.1776,0.1775,0.1766,0.1793,0.1811,0.1818,0.1739,0.1739,0.1739,0.1739,0,0,0.1393,0.1447,0.1453,0.1475,0.1514,0.1539,0.1573,0.1611,0.1631,0.1661,0.1693,0.174,0.1742,0.1765,0.1779,0.1803,0.1839,0.1801,0.1802,0.1811,0.1898,0.19,0.1907,0.1844,0.1846,0.1847,0.1896,0,0.1422,0.148,0.1499,0.1549,0.158,0.1595,0.1625,0.1655,0.1676,0.1707,0.1731,0.1766,0.1763,0.1778,0.1803,0.1829,0.1858,0.1826,0.1878,0.188,0.1871,0.1915,0.1916,0.1961,0.1903,0.1904,0.1905,0,0.1462,0.1494,0.1547,0.1589,0.1602,0.1628,0.1669,0.1698,0.1735,0.1749,0.1777,0.1791,0.1831,0.1821,0.188,0.1858,0.1881,0.1899,0.1901,0.1908,0.1895,0.1927,0.1975,0.1984,0.1915,0.1914,0.1913,0,0.1471,0.1528,0.1568,0.1585,0.1634,0.1653,0.1675,0.1711,0.1735,0.1772,0.1789,0.1829,0.1853,0.1886,0.1912,0.1901,0.1972,0.1961,0.1988,0.1988,0.2003,0.2002,0.2059,0.2013,0.2013,0.2013,0.2013,0,0.1502,0.1535,0.1574,0.1598,0.1638,0.1662,0.1702,0.1725,0.1758,0.1791,0.1807,0.1839,0.187,0.1908,0.1929,0.1978,0.1987,0.2003,0.2009,0.2003,0.2002,0.202,0.2019,0.2015,0.2014,0.2014,0.2014,0,0.1518,0.1545,0.1591,0.1635,0.1647,0.1675,0.1715,0.1742,0.1765,0.1808,0.1819,0.1857,0.1902,0.1932,0.1989,0.2004,0.206,0.2062,0.2047,0.205,0.2077,0.2076,0.215,0.2163,0.2105,0.2106,0.2106,0,0.1537,0.1563,0.1611,0.1634,0.1657,0.1693,0.1719,0.1746,0.1773,0.1822,0.1845,0.1891,0.193,0.2003,0.2037,0.2083,0.209,0.2113,0.2097,0.2093,0.2096,0.2095,0.2101,0.2116,0.2116,0.2117,0.2117,0,0.1568,0.1582,0.1617,0.166,0.1691,0.1725,0.176,0.1779,0.1814,0.1845,0.1891,0.1922,0.1983,0.2031,0.2082,0.2108,0.2121,0.2122,0.2132,0.2127,0.2119,0.2129,0.2057,0.212,0.212,0.212,0.212,0.212,0.1588,0.1615,0.1655,0.1696,0.1726,0.176,0.179,0.1819,0.1858,0.1909,0.1924,0.1975,0.2019,0.2088,0.2117,0.216,0.2157,0.217,0.2173,0.2177,0.218,0.211,0.2169,0.2168,0.2168,0.2168,0.2168,0,0.1624,0.1652,0.169,0.174,0.1774,0.1783,0.1824,0.1853,0.1897,0.1936,0.1976,0.2034,0.2082,0.2123,0.2175,0.2202,0.221,0.2215,0.2215,0.2222,0.2176,0.2165,0.2208,0.2208,0.2208,0.2208,0.2208,0.2208,0.1646,0.1693,0.1713,0.1778,0.1806,0.1855,0.1879,0.1913,0.1946,0.2009,0.205,0.2076,0.2119,0.2175,0.2222,0.2234,0.2254,0.2259,0.2272,0.2228,0.2224,0.222,0.221,0.2262,0.2262,0.2314,0.2315,0.2315]},{"header":{"parameterUnit":"m.s-1","parameterCategory":1,"la1":30.2991,"la2":30.254,"lo1":-89.0895,"lo2":-89.0444,"dy":0.0017,"dx":0.0017,"nx":28,"ny":28,"refTime":"2024-08-08T09:00:00:Z","depth":0,"parameterNumber":3,"parameterNumberName":"V-component_of_WINDS"},"data":[0,0,0,0,0,0,0,0,0,0,0,0,0,0,0,0,0,0,0,0,0,0,0,0,0,0,0,0,0,0,0,0,0,0,0,0,0,0,0,0,0,0,0,0,0,0,0,0,0,0,0,0,0,0,0,0,0,0,-2.4323,-2.4321,0,-2.4163,-2.4162,-2.416,-2.4101,-2.4102,-2.4102,-2.4103,-2.3931,-2.3926,-2.3921,0,0,0,0,0,0,0,0,0,0,0,0,0,-2.4564,-2.456,-2.4323,-2.4321,-2.4319,-2.4164,-2.4162,-2.4159,-2.4101,-2.4102,-2.4102,-2.4103,-2.3933,-2.3927,-2.3921,0,0,0,0,0,0,0,0,0,0,0,0,0,-2.4438,-2.4559,-2.4323,-2.4271,-2.4265,-2.4164,-2.4161,-2.4159,-2.4101,-2.4102,-2.4103,-2.4103,-2.3935,-2.3927,-2.392,-2.3856,0,0,-2.3897,-2.3893,0,0,0,0,0,0,0,0,-2.4445,-2.4429,-2.4281,-2.4275,-2.4268,-2.4153,-2.4184,-2.4057,-2.4101,-2.4163,-2.4103,-2.4104,-2.4004,-2.3991,-2.3959,-2.3848,-2.3841,-2.3896,-2.3891,-2.3888,-2.3886,0,0,0,0,0,0,0,-2.4454,-2.4435,-2.4259,-2.4279,-2.4271,-2.4252,-2.4235,-2.4159,-2.408,-2.4158,-2.4153,-2.4135,-2.4,-2.3966,-2.3954,-2.3838,-2.3896,-2.3889,-2.3885,-2.3882,-2.366,-2.3659,0,0,0,0,0,0,-2.4473,-2.4443,-2.4265,-2.4255,-2.436,-2.4247,-2.4228,-2.4189,-2.4081,-2.4066,-2.4135,-2.4133,-2.3979,-2.3963,-2.3948,-2.3862,-2.3888,-2.3881,-2.3877,-2.3661,-2.366,-2.3658,0,0,0,0,0,0,-2.4478,-2.4457,-2.4271,-2.4347,-2.4322,-2.4242,-2.4199,-2.4185,-2.4151,-2.4064,-2.4049,-2.4115,-2.3979,-2.3959,-2.3878,-2.3855,-2.3877,-2.3871,-2.3663,-2.3661,-2.3659,-2.3692,0,0,0,0,0,0,-2.4485,-2.446,-2.4438,-2.4348,-2.4319,-2.4208,-2.4197,-2.4182,-2.4139,-2.4136,-2.4042,-2.4027,-2.3978,-2.389,-2.3871,-2.3845,-2.3865,-2.3664,-2.3662,-2.366,-2.3692,-2.3691,-2.369,0,0,0,0,0,-2.4494,-2.4453,-2.4437,-2.4416,-2.429,-2.4207,-2.419,-2.4137,-2.4138,-2.4113,-2.4055,-2.403,-2.3861,-2.3883,-2.386,-2.3832,-2.3666,-2.3663,-2.366,-2.3693,-2.3691,-2.369,0,0,0,0,0,0,-2.4542,-2.4441,-2.4422,-2.4352,-2.4288,-2.4198,-2.4165,-2.4138,-2.4072,-2.4071,-2.4005,-2.3984,-2.3908,-2.3862,-2.3888,-2.3761,-2.3761,-2.3754,-2.3794,-2.3792,-2.3791,-2.3802,-2.3858,0,0,0,0,0,-2.4544,-2.4489,-2.4402,-2.4348,-2.4317,-2.4247,-2.4208,-2.4173,-2.4104,-2.4076,-2.4014,-2.3945,-2.3875,-2.3831,-2.3763,-2.3686,-2.366,-2.3654,-2.3653,-2.3653,-2.3646,-2.3595,-2.3589,-2.3648,-2.3649,-2.3649,0,0,-2.4549,-2.4486,-2.4455,-2.4356,-2.4303,-2.4242,-2.4225,-2.4163,-2.4115,-2.4066,-2.3986,-2.3937,-2.3855,-2.3775,-2.3736,-2.3734,-2.3624,-2.3649,-2.3649,-2.3643,-2.3591,-2.3586,-2.3581,-2.3646,-2.3647,-2.3647,0,0,-2.4525,-2.4475,-2.4422,-2.4368,-2.4288,-2.4241,-2.4228,-2.4139,-2.4105,-2.4025,-2.3984,-2.3925,-2.3809,-2.3751,-2.3706,-2.3654,-2.3625,-2.3633,-2.3627,-2.3577,-2.3573,-2.3568,-2.3544,-2.3537,-2.3627,-2.3627,-2.3628,0,-2.454,-2.4451,-2.4397,-2.4336,-2.429,-2.4244,-2.4186,-2.4136,-2.4037,-2.4004,-2.4004,-2.3853,-2.3795,-2.3697,-2.3684,-2.3651,-2.363,-2.3643,-2.3579,-2.3573,-2.3568,-2.3544,-2.3536,-2.3629,-2.3629,-2.3628,-2.3628,0,-2.447,-2.4408,-2.4373,-2.428,-2.4231,-2.4172,-2.4105,-2.406,-2.4027,-2.3978,-2.3892,-2.382,-2.3734,-2.3709,-2.3676,-2.3604,-2.3604,-2.3592,-2.3591,-2.3565,-2.3541,-2.3532,-2.363,-2.363,-2.363,-2.3629,0,0,-2.4475,-2.4349,-2.4337,-2.4291,-2.4197,-2.4146,-2.4081,-2.3999,-2.396,-2.3891,-2.3832,-2.3732,-2.3719,-2.3668,-2.3627,-2.3585,-2.3541,-2.3576,-2.3573,-2.3568,-2.3449,-2.3457,-2.3448,-2.3522,-2.352,-2.3518,-2.3455,0,-2.4436,-2.4323,-2.427,-2.4178,-2.4116,-2.4068,-2.4011,-2.3944,-2.3895,-2.3831,-2.3775,-2.3704,-2.3694,-2.3662,-2.3618,-2.3556,-2.3515,-2.356,-2.346,-2.3458,-2.348,-2.3437,-2.3446,-2.339,-2.3446,-2.3444,-2.3443,0,-2.4378,-2.4309,-2.4212,-2.4119,-2.4091,-2.4042,-2.3958,-2.39,-2.382,-2.3786,-2.3727,-2.3687,-2.3611,-2.3616,-2.3508,-2.3539,-2.3495,-2.3457,-2.3453,-2.344,-2.3447,-2.3418,-2.3371,-2.3361,-2.3429,-2.343,-2.3431,0,-2.4386,-2.427,-2.4195,-2.4157,-2.4049,-2.4014,-2.3966,-2.3888,-2.3839,-2.3764,-2.3731,-2.3648,-2.3602,-2.3536,-2.3473,-2.3483,-2.3368,-2.3369,-2.3333,-2.3334,-2.331,-2.3312,-2.3251,-2.3287,-2.3287,-2.3287,-2.3288,0,-2.4347,-2.4288,-2.4196,-2.415,-2.408,-2.4017,-2.3947,-2.3896,-2.3825,-2.3763,-2.3716,-2.3658,-2.3579,-2.351,-2.3459,-2.3373,-2.3354,-2.332,-2.3307,-2.3323,-2.3327,-2.3291,-2.3292,-2.3285,-2.3286,-2.3286,-2.3286,0,-2.4346,-2.4283,-2.4196,-2.4099,-2.4073,-2.4025,-2.3939,-2.3889,-2.3836,-2.3758,-2.3736,-2.3651,-2.3566,-2.3497,-2.3386,-2.3351,-2.326,-2.3246,-2.3287,-2.328,-2.3246,-2.3249,-2.3158,-2.314,-2.3192,-2.3192,-2.3191,0,-2.4325,-2.4278,-2.4175,-2.4131,-2.4084,-2.4015,-2.3964,-2.3898,-2.3846,-2.3748,-2.3708,-2.362,-2.3546,-2.3412,-2.3337,-2.325,-2.3231,-2.3206,-2.3218,-2.3233,-2.3225,-2.3228,-2.3219,-2.3204,-2.3204,-2.3204,-2.3204,0,-2.4293,-2.4262,-2.4193,-2.411,-2.4052,-2.3983,-2.3913,-2.3879,-2.3798,-2.3742,-2.3655,-2.3597,-2.3482,-2.3393,-2.3297,-2.3242,-2.3206,-2.32,-2.3186,-2.3201,-2.3224,-2.3206,-2.328,-2.3202,-2.3202,-2.3202,-2.3203,-2.3203,-2.4278,-2.4231,-2.415,-2.4072,-2.4012,-2.3946,-2.3893,-2.3832,-2.3759,-2.3661,-2.3625,-2.3534,-2.3448,-2.3315,-2.3259,-2.3184,-2.318,-2.3161,-2.3156,-2.3151,-2.3151,-2.3239,-2.3166,-2.3166,-2.3166,-2.3166,-2.3166,0,-2.424,-2.4184,-2.4113,-2.4016,-2.3952,-2.3927,-2.3846,-2.3793,-2.3715,-2.3639,-2.3566,-2.3462,-2.3373,-2.329,-2.3196,-2.3151,-2.3132,-2.3128,-2.3129,-2.3115,-2.3162,-2.3182,-2.3145,-2.3145,-2.3145,-2.3145,-2.3145,-2.3145,-2.4212,-2.4131,-2.4089,-2.3974,-2.3917,-2.383,-2.3785,-2.3721,-2.3659,-2.3546,-2.3472,-2.3419,-2.3337,-2.3236,-2.3151,-2.3128,-2.3093,-2.3093,-2.3066,-2.311,-2.3113,-2.3116,-2.3134,-2.3087,-2.3087,-2.3024,-2.3024,-2.3023]}]]